TimeCST,TemperatureF,Dew PointF,Humidity,Sea Level PressureIn,VisibilityMPH,Wind Direction,Wind SpeedMPH,Gust SpeedMPH,PrecipitationIn,Events,Conditions,WindDirDegrees,DateUTC
12:01 AM,33.8,33.8,100,29.54,3.0,WNW,6.9,-,N/A,,Overcast,290,2012-12-16 06:01:00
1:01 AM,33.8,33.8,100,29.54,4.0,WNW,6.9,-,N/A,,Overcast,290,2012-12-16 07:01:00
2:01 AM,35.6,35.6,100,29.56,10.0,WNW,9.2,-,N/A,,Overcast,300,2012-12-16 08:01:00
2:41 AM,35.6,33.8,93,29.57,10.0,WNW,8.1,-,N/A,,Overcast,300,2012-12-16 08:41:00
3:01 AM,35.6,33.8,93,29.58,10.0,WNW,9.2,-,N/A,,Overcast,290,2012-12-16 09:01:00
4:01 AM,35.6,35.6,100,29.59,10.0,West,9.2,-,N/A,,Overcast,280,2012-12-16 10:01:00
4:21 AM,35.6,35.6,100,29.60,10.0,WNW,9.2,-,N/A,,Overcast,290,2012-12-16 10:21:00
4:41 AM,35.6,35.6,100,29.61,10.0,WNW,8.1,-,N/A,,Overcast,290,2012-12-16 10:41:00
5:01 AM,35.6,35.6,100,29.62,7.0,West,9.2,-,N/A,,Overcast,280,2012-12-16 11:01:00
5:21 AM,35.6,35.6,100,29.61,5.0,WNW,9.2,-,N/A,,Overcast,300,2012-12-16 11:21:00
5:41 AM,35.6,35.6,100,29.62,3.0,WNW,8.1,-,N/A,,Overcast,290,2012-12-16 11:41:00
6:01 AM,35.6,35.6,100,29.63,2.0,West,10.4,-,N/A,,Overcast,270,2012-12-16 12:01:00
6:21 AM,33.8,33.8,100,29.64,1.2,West,8.1,-,N/A,,Overcast,270,2012-12-16 12:21:00
6:41 AM,33.8,33.8,100,29.64,1.2,West,11.5,-,N/A,,Overcast,270,2012-12-16 12:41:00
7:50 AM,30.2,30.2,100,29.65,1.8,West,16.1,-,N/A,,Overcast,270,2012-12-16 13:50:00
8:50 AM,30.2,28.4,93,29.67,1.8,WNW,12.7,17.3,N/A,,Overcast,290,2012-12-16 14:50:00
9:50 AM,28.4,26.6,93,29.69,2.0,West,9.2,-,N/A,,Overcast,280,2012-12-16 15:50:00
10:45 AM,26.6,24.8,93,29.71,2.5,WNW,11.5,-,N/A,,Overcast,300,2012-12-16 16:45:00
11:45 AM,26.6,24.8,93,29.71,2.5,West,8.1,-,N/A,,Overcast,270,2012-12-16 17:45:00
12:45 PM,24.8,24.8,100,29.70,2.5,WNW,11.5,-,N/A,,Overcast,290,2012-12-16 18:45:00
1:45 PM,23.0,23.0,100,29.71,2.0,West,12.7,-,N/A,,Overcast,280,2012-12-16 19:45:00
2:45 PM,21.2,21.2,100,29.72,3.0,WNW,12.7,-,N/A,,Overcast,290,2012-12-16 20:45:00
3:45 PM,21.2,19.4,93,29.73,5.0,West,11.5,-,N/A,,Overcast,280,2012-12-16 21:45:00
5:45 PM,21.2,19.4,93,29.76,10.0,WNW,9.2,-,N/A,,Overcast,300,2012-12-16 23:45:00
6:45 PM,21.2,19.4,93,29.77,10.0,WNW,9.2,-,N/A,,Overcast,300,2012-12-17 00:45:00
7:45 PM,21.2,19.4,93,29.78,10.0,WNW,9.2,-,N/A,,Overcast,300,2012-12-17 01:45:00
8:45 PM,21.2,19.4,93,29.78,10.0,NW,11.5,-,N/A,,Overcast,320,2012-12-17 02:45:00
9:21 PM,21.2,19.4,93,29.78,10.0,WNW,6.9,-,N/A,,Overcast,300,2012-12-17 03:21:00
9:41 PM,21.2,19.4,93,29.78,10.0,WNW,6.9,-,N/A,,Overcast,300,2012-12-17 03:41:00
10:01 PM,21.2,19.4,93,29.78,10.0,NW,10.4,-,N/A,,Overcast,310,2012-12-17 04:01:00
10:21 PM,21.2,19.4,93,29.79,10.0,NW,8.1,-,N/A,,Overcast,310,2012-12-17 04:21:00
11:01 PM,21.2,19.4,93,29.80,10.0,WNW,8.1,-,N/A,,Overcast,300,2012-12-17 05:01:00